Location: Kalberh�ni
(46.4610°N, 7.2453°E)
Time: 17:41:55
(UTC+00:00)

Meteor 2-1 Rocket - Pass Details

Date: 26 October 2021
Orbit: 830 x 906 km, 81.3° (Epoch: 28 November)

Event Time Altitude Azimuth Distance (km) Brightness Sun altitude
Rises 04:23:54 0° 1° (N) 3,387 7.4 -17.8°
Reaches altitude 10° 04:27:09 10° 20° (NNE) 2,452 6.9 -17.2°
Maximum altitude 04:30:50 18° 62° (ENE) 1,955 6.9 -16.6°
Drops below altitude 10° 04:34:32 10° 104° (ESE) 2,460 7.9 -16.0°
Sets 04:37:47 0° 123° (ESE) 3,402 8.4 -15.4°
